Change the Weather History Date:

Wednesday, January 9, 2013

  Actual Average (KBLV) Record (KBLV)
Temperature  
Mean Temperature 48 °F -  
Max Temperature 55 °F 36 °F 63 °F (1963)
Min Temperature 41 °F 18 °F -5 °F (1962)
Degree Days  
Heating Degree Days 16    
Moisture  
Dew Point 45 °F    
Average Humidity 90    
Maximum Humidity 100    
Minimum Humidity 63    
Precipitation  
Precipitation 0.03 in - - ()
Sea Level Pressure  
Sea Level Pressure 30.38 in    
Wind  
Wind Speed 4 mph (NNE)    
Max Wind Speed 9 mph    
Max Gust Speed -    
Visibility 10 miles    
Events Rain    
Averages and records for this station are not official NWS values.
T = Trace of Precipitation, MM = Missing Value Source: NWS Daily Summary

Daily Weather History Graph

Daily Weather History Graph

Search for Another Location

Airport or City:

Trip Planner

Search our weather history database for the weather conditions in past years. The results will help you decide how hot, cold, wet, or windy it might be!

Date:

Astronomy

Jan. 09, 2013 Rise Set
Actual Time 7:15 AM CST 4:57 PM CST
Civil Twilight 6:46 AM CST 5:26 PM CST
Nautical Twilight 6:13 AM CST 5:58 PM CST
Astronomical Twilight 5:41 AM CST 6:30 PM CST
Moon 4:54 AM CST (1/9) 2:58 PM CST (1/9)
Length of Visible Light 10h 40m
Length of Day
9h 41m
Waning Crescent, 6% of the Moon is Illuminated
Jan 9
Waning Crescent
Jan 11
New
Jan 18
First Quarter
Jan 26
Full
Feb 3
Last Quarter

Hourly Weather History & Observations

Time (CST) Temp. Windchill Dew Point Humidity Pressure Visibility Wind Dir Wind Speed Gust Speed Precip Events Conditions
12:15 AM 46.4 °F 42.4 °F 42.8 °F 87% 30.20 in 10.0 mi South 8.1 mph - N/A   Drizzle
12:35 AM 46.4 °F 42.9 °F 42.8 °F 87% 30.20 in 10.0 mi South 6.9 mph - N/A   Overcast
12:55 AM 46.4 °F 45.2 °F 42.8 °F 87% 30.22 in 10.0 mi SW 3.5 mph - N/A Rain Light Rain
1:15 AM 46.4 °F 45.2 °F 44.6 °F 93% 30.24 in 10.0 mi SW 3.5 mph - N/A Rain Light Rain
1:35 AM 46.4 °F 45.2 °F 44.6 °F 93% 30.25 in 10.0 mi SW 3.5 mph - N/A Rain Rain
1:55 AM 44.6 °F 43.1 °F 44.6 °F 100% 30.26 in 10.0 mi SW 3.5 mph - N/A Rain Rain
2:15 AM 44.6 °F 43.1 °F 44.6 °F 100% 30.26 in 7.0 mi SSW 3.5 mph - N/A Rain Rain
2:35 AM 44.6 °F - 44.6 °F 100% 30.27 in 10.0 mi Calm Calm - N/A   Light Drizzle
2:55 AM 44.6 °F 42.2 °F 44.6 °F 100% 30.28 in 7.0 mi WSW 4.6 mph - 0.01 in Rain Rain
3:15 AM 44.6 °F - 44.6 °F 100% 30.28 in 7.0 mi Calm Calm - 0.02 in Rain Heavy Rain
3:35 AM 44.6 °F 40.7 °F 44.6 °F 100% 30.27 in 5.0 mi SW 6.9 mph - 0.02 in   Drizzle
3:55 AM 46.4 °F 41.9 °F 46.4 °F 100% 30.28 in 10.0 mi SW 9.2 mph - 0.02 in   Overcast
4:15 AM 46.4 °F 42.9 °F 46.4 °F 100% 30.28 in 10.0 mi SSW 6.9 mph - N/A   Overcast
4:35 AM 46.4 °F 45.2 °F 46.4 °F 100% 30.27 in 10.0 mi SW 3.5 mph - N/A   Light Drizzle
4:55 AM 46.4 °F 45.2 °F 46.4 °F 100% 30.38 in 10.0 mi SSW 3.5 mph - N/A   Overcast
5:15 AM 46.4 °F 44.3 °F 46.4 °F 100% 30.29 in 10.0 mi SSW 4.6 mph - N/A Rain Light Rain
5:35 AM 46.4 °F 44.3 °F 46.4 °F 100% 30.29 in 10.0 mi SSW 4.6 mph - N/A   Overcast
5:55 AM 46.4 °F - 46.4 °F 100% 30.29 in 10.0 mi Calm Calm - N/A   Overcast
6:15 AM 46.4 °F 45.2 °F 46.4 °F 100% 30.31 in 10.0 mi SW 3.5 mph - N/A   Overcast
6:35 AM 46.4 °F - 46.4 °F 100% 30.31 in 10.0 mi Calm Calm - N/A   Overcast
6:55 AM 44.6 °F - 44.6 °F 100% 30.33 in 7.0 mi Calm Calm - N/A   Scattered Clouds
7:15 AM 44.6 °F - 44.6 °F 100% 30.34 in 4.0 mi Calm Calm - N/A   Clear
7:35 AM 44.6 °F - 44.6 °F 100% 30.35 in 4.0 mi Calm Calm - N/A   Clear
7:55 AM 44.6 °F - 44.6 °F 100% 30.36 in 7.0 mi Calm Calm - N/A   Clear
8:15 AM 44.6 °F - 44.6 °F 100% 30.37 in 5.0 mi Calm Calm - N/A   Clear
8:35 AM 46.4 °F - 46.4 °F 100% 30.38 in 10.0 mi Calm Calm - N/A   Clear
8:55 AM 48.2 °F - 48.2 °F 100% 30.38 in 10.0 mi WSW 3.5 mph - N/A   Clear
9:15 AM 48.2 °F - 48.2 °F 100% 30.39 in 10.0 mi West 3.5 mph - N/A   Clear
9:55 AM 50.0 °F - 50.0 °F 100% 30.41 in 10.0 mi West 3.5 mph - N/A   Clear
10:15 AM 51.8 °F - 51.8 °F 100% 30.41 in 10.0 mi Calm Calm - N/A   Clear
10:35 AM 51.8 °F - 51.8 °F 100% 30.40 in 10.0 mi Calm Calm - N/A   Clear
10:55 AM 51.8 °F - 50.0 °F 94% 30.40 in 10.0 mi WNW 3.5 mph - N/A   Clear
11:15 AM 51.8 °F - 50.0 °F 94% 30.40 in 10.0 mi NW 4.6 mph - N/A   Clear
11:35 AM 51.8 °F - 48.2 °F 88% 30.39 in 10.0 mi NW 4.6 mph - N/A   Clear
11:55 AM 53.6 °F - 48.2 °F 82% 30.39 in 10.0 mi NNW 3.5 mph - N/A   Clear
12:15 PM 53.6 °F - 48.2 °F 82% 30.39 in 10.0 mi Calm Calm - N/A   Clear
12:35 PM 55.4 °F - 42.8 °F 63% 30.39 in 10.0 mi NNW 4.6 mph - N/A   Clear
12:55 PM 55.4 °F - 44.6 °F 67% 30.39 in 10.0 mi NNE 4.6 mph - N/A   Clear
1:15 PM 55.4 °F - 44.6 °F 67% 30.39 in 10.0 mi NE 5.8 mph - N/A   Clear
1:35 PM 55.4 °F - 44.6 °F 67% 30.39 in 10.0 mi North 3.5 mph - N/A   Clear
1:55 PM 55.4 °F - 42.8 °F 63% 30.39 in 10.0 mi North 4.6 mph - N/A   Clear
2:15 PM 55.4 °F - 44.6 °F 67% 30.39 in 10.0 mi NE 4.6 mph - N/A   Clear
2:35 PM 55.4 °F - 42.8 °F 63% 30.40 in 10.0 mi NNE 4.6 mph - N/A   Clear
2:55 PM 55.4 °F - 42.8 °F 63% 30.40 in 10.0 mi NE 5.8 mph - N/A   Clear
3:15 PM 55.4 °F - 42.8 °F 63% 30.41 in 10.0 mi North 5.8 mph - N/A   Clear
3:55 PM 51.8 °F - 42.8 °F 71% 30.42 in 10.0 mi North 4.6 mph - N/A   Clear
4:15 PM 51.8 °F - 42.8 °F 71% 30.42 in 10.0 mi North 3.5 mph - N/A   Clear
4:35 PM 51.8 °F - 42.8 °F 71% 30.42 in 10.0 mi NNE 3.5 mph - N/A   Clear
4:55 PM 48.2 °F - 42.8 °F 82% 30.42 in 10.0 mi NNE 4.6 mph - N/A   Clear
5:15 PM 46.4 °F - 44.6 °F 93% 30.43 in 10.0 mi Calm Calm - N/A   Clear
5:35 PM 46.4 °F - 44.6 °F 93% 30.44 in 10.0 mi Calm Calm - N/A   Clear
5:55 PM 46.4 °F - 44.6 °F 93% 30.44 in 10.0 mi Calm Calm - N/A   Clear
6:15 PM 46.4 °F 45.2 °F 44.6 °F 93% 30.45 in 10.0 mi ENE 3.5 mph - N/A   Clear
6:35 PM 44.6 °F 43.1 °F 44.6 °F 100% 30.46 in 10.0 mi East 3.5 mph - N/A   Clear
6:55 PM 46.4 °F 44.3 °F 44.6 °F 93% 30.46 in 10.0 mi ENE 4.6 mph - N/A   Clear
7:15 PM 44.6 °F 42.2 °F 44.6 °F 100% 30.46 in 10.0 mi NE 4.6 mph - N/A   Clear
7:35 PM 44.6 °F 42.2 °F 44.6 °F 100% 30.46 in 10.0 mi NE 4.6 mph - N/A   Clear
7:55 PM 44.6 °F 42.2 °F 42.8 °F 93% 30.46 in 10.0 mi NE 4.6 mph - N/A   Clear
8:15 PM 44.6 °F 42.2 °F 42.8 °F 93% 30.46 in 10.0 mi NE 4.6 mph - N/A   Clear
8:55 PM 42.8 °F 40.1 °F 42.8 °F 100% 30.47 in 10.0 mi East 4.6 mph - N/A   Clear
9:15 PM 44.6 °F 41.4 °F 41.0 °F 87% 30.47 in 10.0 mi ENE 5.8 mph - N/A   Clear
9:35 PM 42.8 °F 39.3 °F 41.0 °F 93% 30.47 in 10.0 mi ENE 5.8 mph - N/A   Clear
9:55 PM 42.8 °F 39.3 °F 39.2 °F 87% 30.47 in 10.0 mi ENE 5.8 mph - N/A   Clear
10:15 PM 42.8 °F 38.6 °F 39.2 °F 87% 30.46 in 10.0 mi ENE 6.9 mph - N/A   Clear
10:35 PM 42.8 °F 38.0 °F 39.2 °F 87% 30.46 in 10.0 mi ENE 8.1 mph - N/A   Clear
10:55 PM 42.8 °F 38.6 °F 39.2 °F 87% 30.46 in 10.0 mi ENE 6.9 mph - N/A   Clear
11:15 PM 42.8 °F 39.3 °F 39.2 °F 87% 30.46 in 10.0 mi ENE 5.8 mph - N/A   Clear
11:35 PM 42.8 °F 40.1 °F 39.2 °F 87% 30.47 in 10.0 mi East 4.6 mph - N/A   Clear
11:55 PM 41.0 °F 37.1 °F 39.2 °F 93% 30.47 in 10.0 mi East 5.8 mph - N/A   Clear